Location: *
(24.1434°N, 56.8729°E)
Time: 22:10:51
(UTC+00:00)

CSL-04 Rocket - Pass Details

Date: 09 April 2020
Orbit: 807 x 859 km, 98.9° (Epoch: 23 May)

Event Time Altitude Azimuth Distance (km) Brightness Sun altitude
Rises 15:32:05 0° 177° (S) 3,327 6.6 -14.2°
Reaches altitude 10° 15:34:29 10° 182° (S) 2,392 5.9 -14.8°
Maximum altitude 15:39:37 53° 259° (WSW) 986 4.4 -15.9°
Drops below altitude 10° 15:44:46 10° 335° (NNW) 2,388 6.6 -17.0°
Sets 15:47:09 0° 341° (NNW) 3,321 7.3 -17.5°
